DECAYED

STARLINK-1930, 46789 (Decayed)

Orbit data source: Space-Track

STARLINK-1930, 46789 was a payload satellite owned by SpaceX/Seattle (US) in LEO that was launched on Sat, 24 Oct 2020 UTC via an FALCON 9 launch vehicle from the Air Force Eastern Test Range (AFETR). Payload-class satellites include a variety of spacecraft equipped with specific instruments for various scientific and technological missions. These include communications satellites like Starlink; space stations such as the ISS; scientific satellites like the Hubble; Earth observation satellites from companies like Planet Labs, Umbra, and HawkEye 360; GPS; miniature CubeSats for education and research; and military/defense satellites.

Not visible in the next 10 days
Identifier
46789, 2020-074BC
Orbit
Decayed
Country
Flag of USUS
Related business
Manufacturer
SpaceX/Seattle
Mission
Decayed Commercial Communications
Bus & Motor
STARLINK, Unknown motor
Mass
260 kg wet, ~248 kg dry
Launch date (UTC)
2020-10-24 (5 years ago)
Launch vehicle
FALCON 9
Launch site
Air Force Eastern Test Range (AFETR)
Object type
Payload
Rocket body
Debris
Shape & HBR
Box + 1 Pan, 10.1 m
Radar Cross Section
13.562 m², Large (>1 m²)

Expand to show TLE details & history
Last TLE update: 10 months ago

TLE from 10 months ago
0 STARLINK-1930
1 46789U 20074BC  25034.80857602  .08226544  12188-4  11028-2 0  9996
2 46789  53.0188 273.6791 0008819 259.7430 148.4387 16.34518778236772
Epoch: 2025-02-03T19:24Z
TLE epoch observation values (Epoch: 2025-02-03T19:24:20.968Z)
Latitude
36.69606°
Longitude
-117.71379°
Altitude
188.237 km
Speed
7.795 km/s
True Right ascension
20h 30m 23s
True Declination
36° 31' 02"
Sunlit
Object was in daylight at epoch
Visualization orbit readout
Latitude
Unknown
Longitude
Unknown
Altitude
Unknown
Speed
Unknown
Apparent Right ascension
Unknown
Apparent Declination
Unknown
Sunlit
N/A
Visualization observer readout
Local Sidereal Time
13:03:45
Azimuth
Unknown
Elevation
Unknown
Doppler factor
Unknown
Orbital elements
Apogee altitude
186.5 km
Perigee altitude
174.931 km
Semi-major axis
6,558.852 km
Eccentricity
0.00088
Inclination
53.0188°
RAAN
273.6791°
Arg. of periapsis
259.743°
True anomaly
148.49155°
Mean anomaly
148.4387°
Eccentric anomaly
148.46513°
Mean motion
4.08603 °/min
Orbital period
88.11 mins
BSTAR
0.0011028
Loading maneuver chart data...
Computing Atmospheric mass density...

Documentation

Showing up to 5 results
|